Atka, AK

6:16 PM HDT on September 19, 2017 (GMT -0900)
Atka

Weather History for PAAK - November, 2012

Change the Weather History Date:

Wednesday, November 7, 2012

  Actual Average (PADK) Record (PADK)
Temperature  
Mean Temperature 42 °F -  
Max Temperature 46 °F 43 °F 53 °F (2015)
Min Temperature 37 °F 33 °F 27 °F (1983)
Degree Days  
Heating Degree Days 24    
Moisture  
Dew Point 37 °F    
Average Humidity 83    
Maximum Humidity 100    
Minimum Humidity 70    
Precipitation  
Precipitation 0.00 in - - ()
Sea Level Pressure  
Sea Level Pressure 29.63 in    
Wind  
Wind Speed 24 mph (ESE)    
Max Wind Speed 41 mph    
Max Gust Speed 52 mph    
Visibility 8 miles    
Events      
Averages and records for this station are not official NWS values.
T = Trace of Precipitation, MM = Missing Value Source: NWS Daily Summary

Daily Weather History Graph

Daily Weather History Graph

Search for Another Location

Airport or City:

Trip Planner

Search our weather history database for the weather conditions in past years. The results will help you decide how hot, cold, wet, or windy it might be!

Date:

Astronomy

Nov. 07, 2012 Rise Set
Actual Time 8:44 AM HST 5:55 PM HST
Civil Twilight 8:07 AM HST 6:32 PM HST
Nautical Twilight 7:27 AM HST 7:13 PM HST
Astronomical Twilight 6:47 AM HST 7:52 PM HST
Moon 1:03 AM HST (11/7) 2:57 PM HST (11/7)
Length of Visible Light 10h 24m
Length of Day
9h 11m
Last Quarter, 41% of the Moon is Illuminated
Nov 7
Last Quarter
Nov 13
New
Nov 20
First Quarter
Nov 28
Full
Dec 6
Last Quarter

Hourly Weather History & Observations

Time (HST) Temp. Windchill Dew Point Humidity Pressure Visibility Wind Dir Wind Speed Gust Speed Precip Events Conditions
12:16 AM 39.2 °F 26.0 °F 33.8 °F 81% 29.83 in 5.0 mi East 39.1 mph 50.6 mph N/A   Overcast
12:36 AM 37.4 °F 23.5 °F 33.8 °F 87% 29.82 in 3.0 mi East 39.1 mph 50.6 mph N/A   Overcast
12:56 AM 37.4 °F 23.3 °F 33.8 °F 87% 29.80 in 4.0 mi East 40.3 mph 49.5 mph N/A   Overcast
1:16 AM 37.4 °F 23.1 °F 33.8 °F 87% 29.79 in 4.0 mi East 41.4 mph 51.8 mph N/A   Overcast
1:36 AM 37.4 °F 23.8 °F 33.8 °F 87% 29.80 in 5.0 mi East 36.8 mph 49.5 mph N/A   Overcast
1:56 AM 37.4 °F 24.4 °F 33.8 °F 87% 29.80 in 9.0 mi East 33.4 mph 43.7 mph N/A   Overcast
2:16 AM 37.4 °F 24.4 °F 33.8 °F 87% 29.80 in 7.0 mi East 33.4 mph 43.7 mph N/A   Overcast
2:36 AM 37.4 °F 24.6 °F 33.8 °F 87% 29.79 in 8.0 mi East 32.2 mph 44.9 mph N/A   Overcast
2:56 AM 37.4 °F 24.2 °F 33.8 °F 87% 29.77 in 5.0 mi East 34.5 mph 43.7 mph N/A   Overcast
3:16 AM 37.4 °F 24.8 °F 33.8 °F 87% 29.75 in 7.0 mi East 31.1 mph 41.4 mph N/A   Mostly Cloudy
3:36 AM 37.4 °F 25.0 °F 33.8 °F 87% 29.72 in 6.0 mi East 29.9 mph 42.6 mph N/A   Overcast
3:56 AM 37.4 °F 25.0 °F 33.8 °F 87% 29.70 in 5.0 mi East 29.9 mph 44.9 mph N/A   Overcast
4:16 AM 39.2 °F 27.0 °F 33.8 °F 81% 29.69 in 6.0 mi East 32.2 mph 40.3 mph N/A   Overcast
4:36 AM 37.4 °F 24.4 °F 33.8 °F 87% 29.70 in 4.0 mi East 33.4 mph 46.0 mph N/A   Overcast
4:56 AM 37.4 °F 24.6 °F 33.8 °F 87% 29.67 in 3.0 mi East 32.2 mph 44.9 mph N/A   Overcast
5:16 AM 39.2 °F 27.6 °F 33.8 °F 81% 29.65 in 5.0 mi East 28.8 mph 41.4 mph N/A   Overcast
5:36 AM 39.2 °F 26.3 °F 33.8 °F 81% 29.62 in 5.0 mi East 36.8 mph 46.0 mph N/A   Overcast
5:56 AM 39.2 °F 26.8 °F 33.8 °F 81% 29.62 in 8.0 mi ENE 33.4 mph 44.9 mph N/A   Overcast
6:16 AM 41.0 °F 29.5 °F 33.8 °F 76% 29.62 in 8.0 mi ENE 32.2 mph 42.6 mph N/A   Overcast
6:36 AM 41.0 °F 30.0 °F 35.6 °F 81% 29.62 in 5.0 mi East 28.8 mph 43.7 mph N/A   Overcast
6:56 AM 41.0 °F 30.5 °F 35.6 °F 81% 29.61 in 8.0 mi East 26.5 mph 48.3 mph N/A   Overcast
7:16 AM 42.8 °F 34.5 °F 33.8 °F 70% 29.61 in 10.0 mi East 18.4 mph 34.5 mph N/A   Overcast
7:36 AM 42.8 °F 33.5 °F 35.6 °F 76% 29.61 in 10.0 mi East 23.0 mph 38.0 mph N/A   Overcast
7:56 AM 42.8 °F 36.6 °F 35.6 °F 76% 29.61 in 9.0 mi East 11.5 mph 31.1 mph N/A   Overcast
8:16 AM 42.8 °F 34.5 °F 35.6 °F 76% 29.62 in 10.0 mi East 18.4 mph 25.3 mph N/A   Overcast
8:36 AM 42.8 °F 34.5 °F 35.6 °F 76% 29.61 in 10.0 mi East 18.4 mph 21.9 mph N/A   Overcast
8:56 AM 42.8 °F 35.4 °F 35.6 °F 76% 29.61 in 10.0 mi East 15.0 mph 25.3 mph N/A   Overcast
9:16 AM 42.8 °F 34.5 °F 35.6 °F 76% 29.59 in 10.0 mi ENE 18.4 mph 34.5 mph N/A   Overcast
9:36 AM 42.8 °F 35.1 °F 35.6 °F 76% 29.59 in 10.0 mi ESE 16.1 mph 25.3 mph N/A   Overcast
9:56 AM 44.6 °F 37.2 °F 35.6 °F 71% 29.59 in 10.0 mi East 17.3 mph 25.3 mph N/A   Overcast
10:16 AM 44.6 °F 37.8 °F 35.6 °F 71% 29.59 in 10.0 mi East 15.0 mph 20.7 mph N/A   Overcast
10:36 AM 44.6 °F 37.8 °F 35.6 °F 71% 29.58 in 10.0 mi East 15.0 mph - N/A   Overcast
10:56 AM 46.4 °F 41.9 °F 37.4 °F 71% 29.57 in 10.0 mi SE 9.2 mph - N/A   Overcast
11:16 AM 44.6 °F 40.2 °F 37.4 °F 76% 29.57 in 10.0 mi ESE 8.1 mph 16.1 mph N/A   Overcast
11:36 AM 46.4 °F 43.5 °F 37.4 °F 71% 29.56 in 10.0 mi ESE 5.8 mph - N/A   Overcast
11:56 AM 46.4 °F 40.7 °F 37.4 °F 71% 29.57 in 10.0 mi ESE 12.7 mph 16.1 mph N/A   Overcast
12:16 PM 46.4 °F 44.3 °F 39.2 °F 76% 29.57 in 10.0 mi North 4.6 mph - N/A   Overcast
12:36 PM 44.6 °F 42.2 °F 39.2 °F 81% 29.57 in 10.0 mi South 4.6 mph - N/A   Overcast
12:56 PM 44.6 °F 37.2 °F 39.2 °F 81% 29.57 in 10.0 mi East 17.3 mph - N/A   Overcast
1:16 PM 44.6 °F 38.8 °F 39.2 °F 81% 29.57 in 10.0 mi East 11.5 mph - N/A   Overcast
1:36 PM 44.6 °F 38.1 °F 39.2 °F 81% 29.57 in 10.0 mi ESE 13.8 mph 19.6 mph N/A   Overcast
1:56 PM 44.6 °F 36.9 °F 39.2 °F 81% 29.57 in 10.0 mi ESE 18.4 mph 21.9 mph N/A   Overcast
2:16 PM 44.6 °F 38.4 °F 39.2 °F 81% 29.57 in 10.0 mi SE 12.7 mph - N/A   Overcast
2:36 PM 44.6 °F 37.8 °F 39.2 °F 81% 29.57 in 7.0 mi SSE 15.0 mph 20.7 mph N/A   Overcast
2:56 PM 44.6 °F 37.4 °F 39.2 °F 81% 29.57 in 10.0 mi SSE 16.1 mph - N/A   Overcast
3:16 PM 44.6 °F 36.9 °F 39.2 °F 81% 29.57 in 10.0 mi SSE 18.4 mph - N/A   Overcast
3:36 PM 42.8 °F 35.8 °F 39.2 °F 87% 29.57 in 9.0 mi SSE 13.8 mph - N/A   Overcast
3:56 PM 42.8 °F 36.2 °F 39.2 °F 87% 29.57 in 9.0 mi SSE 12.7 mph - N/A   Overcast
4:16 PM 42.8 °F 37.0 °F 39.2 °F 87% 29.58 in 8.0 mi SSE 10.4 mph - N/A   Overcast
4:36 PM 42.8 °F 38.0 °F 39.2 °F 87% 29.58 in 10.0 mi South 8.1 mph - N/A   Overcast
4:56 PM 42.8 °F 38.0 °F 39.2 °F 87% 29.59 in 10.0 mi South 8.1 mph - N/A   Overcast
5:16 PM 42.8 °F 38.6 °F 39.2 °F 87% 29.59 in 10.0 mi South 6.9 mph - N/A   Overcast
5:36 PM 42.8 °F 38.0 °F 39.2 °F 87% 29.59 in 9.0 mi South 8.1 mph - N/A   Overcast
5:56 PM 42.8 °F 39.3 °F 39.2 °F 87% 29.59 in 9.0 mi South 5.8 mph - N/A   Overcast
6:16 PM 42.8 °F 39.3 °F 39.2 °F 87% 29.59 in 10.0 mi South 5.8 mph - N/A   Overcast
6:36 PM 42.8 °F 39.3 °F 39.2 °F 87% 29.59 in 10.0 mi South 5.8 mph - N/A   Overcast
6:56 PM 42.8 °F 38.6 °F 41.0 °F 93% 29.58 in 10.0 mi South 6.9 mph - N/A   Overcast
7:16 PM 42.8 °F 38.6 °F 39.2 °F 87% 29.59 in 10.0 mi South 6.9 mph - N/A   Overcast
7:36 PM 42.8 °F 38.6 °F 39.2 °F 87% 29.60 in 10.0 mi South 6.9 mph - N/A   Overcast
7:56 PM 42.8 °F 38.0 °F 39.2 °F 87% 29.60 in 6.0 mi SSE 8.1 mph - N/A   Overcast
8:16 PM 42.8 °F 37.5 °F 39.2 °F 87% 29.60 in 3.0 mi SSE 9.2 mph - N/A   Overcast
8:36 PM 42.8 °F 37.5 °F 39.2 °F 87% 29.60 in 3.0 mi South 9.2 mph - N/A   Overcast
8:56 PM 42.8 °F 38.0 °F 39.2 °F 87% 29.61 in 5.0 mi SSE 8.1 mph - N/A   Overcast
9:16 PM 42.8 °F 38.0 °F 41.0 °F 93% 29.60 in 4.0 mi South 8.1 mph - N/A   Overcast
9:36 PM 42.8 °F 38.6 °F 41.0 °F 93% 29.60 in 4.0 mi South 6.9 mph - N/A   Overcast
9:56 PM 42.8 °F 38.6 °F 39.2 °F 87% 29.60 in 7.0 mi SSE 6.9 mph - N/A   Overcast
10:16 PM 42.8 °F 39.3 °F 41.0 °F 93% 29.61 in 4.0 mi SSE 5.8 mph - N/A   Overcast
10:36 PM 42.8 °F 38.6 °F 41.0 °F 93% 29.61 in 5.0 mi SSE 6.9 mph - N/A   Overcast
10:56 PM 42.8 °F 38.6 °F 42.8 °F 100% 29.61 in 3.0 mi South 6.9 mph - N/A   Overcast
11:16 PM 42.8 °F 39.3 °F 41.0 °F 93% 29.60 in 3.0 mi SSE 5.8 mph - N/A   Overcast
11:36 PM 42.8 °F 38.6 °F 41.0 °F 93% 29.60 in 1.5 mi SE 6.9 mph - N/A   Overcast
11:56 PM 42.8 °F 39.3 °F 41.0 °F 93% 29.61 in 1.5 mi SE 5.8 mph - N/A   Overcast